Location: Blue Mountain Vista Observatory
(40.6992°N, 75.9422°W)
Time: 04:29:15
(UTC-04:00)

Amateur Radio Satellites - All Passes

Search period start: 24 September 2017 03:59
Search period end: 25 September 2017 03:59
Location: Blue Mountain Vista Observatory, 40.6992°N, 75.9422°W

Satellite Date Start Highest point End Downlink Frequencies (MHz)
Time Altitude Azimuth
RS-15 24 Sep 03:59:34 04:08:25 24° 100° (E) 04:17:18 29.354- 29.394
ISS 24 Sep 04:05:57 04:09:05 41° 223° (SW) 04:12:12 437.550
BEESAT 24 Sep 04:25:08 04:29:07 27° 264° (W) 04:33:11 436.000
AO-85 24 Sep 04:26:13 04:29:31 20° 46° (NE) 04:32:58 145.980
O/OREOS (USA 219) 24 Sep 04:28:20 04:30:09 12° 309° (NW) 04:31:59 437.305
AO-7 24 Sep 04:43:30 04:51:50 75° 106° (ESE) 05:00:07 .
nSIGHT-1 24 Sep 04:45:36 04:47:36 15° 229° (SW) 04:49:35 .
ITAMSAT 1 24 Sep 04:54:28 04:59:42 87° 284° (WNW) 05:04:56 435.822/435.867
MOZHAYETS 4 24 Sep 04:55:05 04:57:27 14° 269° (W) 04:59:50
KKS-1 24 Sep 05:09:27 05:13:50 70° 74° (ENE) 05:18:15 437.445
CUBESAT XI-V 24 Sep 05:20:13 05:24:28 34° 263° (W) 05:28:45 437.345
BEESAT 3 24 Sep 05:27:01 05:30:45 40° 244° (WSW) 05:34:24 437.485
STARS 24 Sep 05:32:45 05:36:57 49° 72° (ENE) 05:41:10 437.465
BEESAT 2 24 Sep 05:35:01 05:39:05 72° 56° (NE) 05:43:04 435.950
AO-85 24 Sep 06:05:47 06:10:10 54° 242° (WSW) 06:14:53 145.980
RS-15 24 Sep 06:06:58 06:19:16 90° 128° (SE) 06:31:40 29.354- 29.394
XW-2C 24 Sep 06:18:09 06:20:38 17° 93° (E) 06:23:07 145.795 - 145.815
NUDT-PHONESAT 24 Sep 06:19:13 06:20:30 11° 91° (E) 06:21:46 437.300
LilacSat-2 24 Sep 06:30:26 06:33:38 25° 95° (E) 06:36:49 437.200
DOVE 4 24 Sep 06:33:07 06:37:22 79° 285° (WNW) 06:41:48 437.250
ITAMSAT 1 24 Sep 06:36:36 06:38:21 12° 302° (WNW) 06:40:06 435.822/435.867
AO-7 24 Sep 06:37:21 06:43:50 26° 305° (NW) 06:50:18 .
CUTE-I 24 Sep 06:46:02 06:50:48 32° 97° (E) 06:55:32 437.470
KAITUO 1B 24 Sep 06:46:50 06:50:02 26° 96° (E) 06:53:13 145.475/437.950
KKS-1 24 Sep 06:50:10 06:50:50 10° 270° (W) 06:51:30 437.445
STRAND 1 24 Sep 07:00:45 07:05:22 36° 69° (ENE) 07:10:00 437.568
CUTE 1.7 + AOD 2 24 Sep 07:03:55 07:05:21 11° 90° (E) 07:06:47 437.475
STARS 24 Sep 07:11:10 07:13:33 14° 268° (W) 07:15:56 437.465
XW-2D 24 Sep 07:17:22 07:21:12 83° 282° (WNW) 07:24:58 145.860 - 145.880
HO-68 24 Sep 07:25:53 07:32:04 30° 95° (E) 07:38:12 435.675
XW-2F 24 Sep 07:29:21 07:33:07 64° 285° (WNW) 07:36:50 145.980 - 146.000
XW-2B 24 Sep 07:29:48 07:33:34 60° 285° (WNW) 07:37:17 145.730 - 145.750
CUBEBUG 2 24 Sep 07:36:56 07:40:09 18° 92° (E) 07:43:23 437.445
UWE-3 24 Sep 07:44:01 07:45:45 12° 89° (E) 07:47:28 435.000/436.395/437.385
NUDT-PHONESAT 24 Sep 07:51:02 07:54:36 44° 287° (WNW) 07:58:08 437.300
XW-2C 24 Sep 07:51:28 07:54:53 32° 289° (WNW) 07:58:16 145.795 - 145.815
XW-2A 24 Sep 07:57:42 07:59:59 17° 94° (E) 08:02:14 145.665 - 145.685
LilacSat-2 24 Sep 08:04:48 08:07:46 22° 291° (WNW) 08:10:43 437.200
SEEDS 24 Sep 08:08:22 08:12:17 38° 98° (E) 08:16:10 437.485
KAITUO 1B 24 Sep 08:21:08 08:23:51 19° 292° (WNW) 08:26:33 145.475/437.950
RS-15 24 Sep 08:22:42 08:33:34 34° 327° (NNW) 08:44:23 29.354- 29.394
CUTE-I 24 Sep 08:26:05 08:30:46 32° 293° (WNW) 08:35:27 437.470
AO-73 24 Sep 08:26:14 08:29:04 16° 91° (E) 08:31:54 145.935
ZACube-1 24 Sep 08:29:02 08:32:22 20° 93° (E) 08:35:41 437.345
AAUSAT CUBESAT 2 24 Sep 08:29:33 08:33:09 29° 96° (E) 08:36:43 437.432
CUTE 1.7 + AOD 2 24 Sep 08:37:22 08:41:32 57° 286° (WNW) 08:45:39 437.475
STRAND 1 24 Sep 08:40:21 08:44:35 26° 265° (W) 08:48:51 437.568
UNISAT 6 24 Sep 09:08:13 09:11:19 19° 66° (ENE) 09:14:29 437.425
CUBEBUG 2 24 Sep 09:12:26 09:16:57 47° 287° (WNW) 09:21:29 437.445
HO-68 24 Sep 09:13:06 09:20:00 52° 293° (WNW) 09:26:54 435.675
FO-29 24 Sep 09:13:42 09:19:25 74° 73° (ENE) 09:24:40 435.910
UWE-3 24 Sep 09:17:58 09:22:37 69° 285° (WNW) 09:27:15 435.000/436.395/437.385
XW-2A 24 Sep 09:29:49 09:32:41 25° 289° (WNW) 09:35:31 145.665 - 145.685
TIGRISAT 24 Sep 09:30:54 09:34:41 30° 69° (ENE) 09:38:34 435.000
SEEDS 24 Sep 09:44:53 09:47:40 18° 294° (WNW) 09:50:26 437.485
DELFI C3 24 Sep 09:52:52 09:55:44 19° 94° (E) 09:58:36 145.870
PRISM 24 Sep 09:53:52 09:57:28 30° 70° (ENE) 10:01:03 437.425
Oscar 11 24 Sep 09:59:25 10:03:45 71° 285° (WNW) 10:08:03 .
AO-73 24 Sep 10:01:08 10:05:33 48° 287° (WNW) 10:09:55 145.935
ZACube-1 24 Sep 10:04:29 10:08:47 40° 288° (WNW) 10:13:02 437.345
AAUSAT CUBESAT 2 24 Sep 10:05:16 10:08:26 22° 292° (WNW) 10:11:36 437.432
EO-88 24 Sep 10:13:57 10:16:31 18° 94° (E) 10:19:03 145.990 - 145.960
RS-15 24 Sep 10:42:32 10:51:22 22° 2° (N) 11:00:00 29.354- 29.394
UNISAT 6 24 Sep 10:43:41 10:47:44 38° 263° (W) 10:51:53 437.425
Max Valier Satellite 24 Sep 10:47:27 10:51:12 69° 102° (ESE) 10:54:54 145.860
FO-29 24 Sep 11:02:30 11:04:58 13° 269° (W) 11:07:21 435.910
TIGRISAT 24 Sep 11:07:53 11:11:23 23° 266° (W) 11:14:57 435.000
LO-87 24 Sep 11:09:54 11:10:19 10° 91° (E) 11:10:45 145.935 - 145.965
DUCHIFAT 1 24 Sep 11:10:42 11:13:01 15° 64° (ENE) 11:15:21 145.980
O/OREOS (USA 219) 24 Sep 11:17:51 11:20:43 16° 54° (NE) 11:23:35 437.305
POLYITAN 1 24 Sep 11:24:11 11:27:40 26° 69° (ENE) 11:31:12 437.675
DELFI C3 24 Sep 11:27:07 11:30:30 29° 290° (WNW) 11:33:52 145.870
EO-79 24 Sep 11:28:08 11:31:44 28° 69° (ENE) 11:35:21 145.935-145.965
M-CUBED/EXP-1 PRIME 24 Sep 11:28:35 11:30:44 14° 61° (ENE) 11:32:48 437.505
PRISM 24 Sep 11:29:39 11:32:45 21° 265° (W) 11:35:50 437.425
AIST 2D 24 Sep 11:31:03 11:34:35 82° 77° (ENE) 11:38:09 435.315
QB50P2 24 Sep 11:41:33 11:45:32 44° 72° (ENE) 11:49:35 145.880/145.840
EO-88 24 Sep 11:47:02 11:50:10 27° 289° (WNW) 11:53:16 145.990 - 145.960
NO-84 24 Sep 12:06:02 12:08:49 18° 127° (SE) 12:11:28 435.350 FM
ESTCUBE 1 24 Sep 12:13:48 12:18:07 44° 99° (E) 12:22:23 437.505/2401.250
NANOSAT C BR1 24 Sep 12:16:00 12:20:11 89° 53° (NE) 12:24:25 145.865
YUBILEINY 24 Sep 12:26:33 12:35:03 61° 91° (E) 12:43:33 435.215
SPROUT 24 Sep 12:33:42 12:36:36 18° 93° (E) 12:39:30 437.525
LO-87 24 Sep 12:40:30 12:43:59 46° 286° (WNW) 12:47:27 145.935 - 145.965
VELOX 1 24 Sep 12:40:41 12:43:13 15° 92° (E) 12:45:46 145.980
DUCHIFAT 1 24 Sep 12:44:12 12:48:15 48° 261° (W) 12:52:20 145.980
O/OREOS (USA 219) 24 Sep 12:55:59 13:00:31 57° 252° (WSW) 13:05:01 437.305
RS-15 24 Sep 12:57:53 13:08:52 37° 36° (NE) 13:19:17 29.354- 29.394
POLYITAN 1 24 Sep 12:59:51 13:03:22 26° 264° (W) 13:06:56 437.675
M-CUBED/EXP-1 PRIME 24 Sep 13:00:34 13:04:47 55° 254° (WSW) 13:08:45 437.505
EO-79 24 Sep 13:04:06 13:07:28 23° 265° (W) 13:10:52 145.935-145.965
SO-50 24 Sep 13:15:36 13:18:39 18° 110° (ESE) 13:21:42 436.795
BUGSAT 1 24 Sep 13:16:16 13:20:16 83° 255° (WSW) 13:24:22 437.445
Gurwin Techsat 1B 24 Sep 13:18:09 13:22:52 34° 67° (ENE) 13:27:36 435.225
QB50P2 24 Sep 13:19:07 13:21:32 15° 268° (W) 13:24:00 145.880/145.840
Oscar 19 24 Sep 13:26:15 13:31:20 58° 72° (ENE) 13:36:27 437.125/150
NO-84 24 Sep 13:42:12 13:46:00 53° 321° (NW) 13:49:30 435.350 FM
DX 1 24 Sep 13:46:22 13:49:35 20° 94° (E) 13:52:47 434.975-435.025
ESTCUBE 1 24 Sep 13:51:33 13:54:34 18° 295° (WNW) 13:57:34 437.505/2401.250
AO-7 24 Sep 13:52:22 13:58:24 23° 52° (NE) 14:04:23 .
PCSat 24 Sep 13:53:51 13:57:54 22° 106° (ESE) 14:01:59 145.827
50 SAT 24 Sep 13:55:16 13:58:12 29° 98° (E) 14:01:07 437.505
SPROUT 24 Sep 14:08:38 14:12:38 39° 288° (WNW) 14:16:37 437.525
VELOX 1 24 Sep 14:15:41 14:19:55 47° 288° (WNW) 14:24:08 145.980
YUBILEINY 24 Sep 14:25:05 14:32:22 29° 292° (WNW) 14:39:41 435.215
ITAMSAT 1 24 Sep 14:34:57 14:38:21 18° 62° (ENE) 14:41:46 435.822/435.867
SO-50 24 Sep 14:54:23 14:58:43 48° 307° (NW) 15:03:06 436.795
Gurwin Techsat 1B 24 Sep 14:58:09 15:02:46 30° 264° (W) 15:07:26 435.225
Oscar 19 24 Sep 15:07:44 15:11:00 17° 268° (W) 15:14:18 437.125/150
RS-15 24 Sep 15:10:40 15:22:37 79° 242° (WSW) 15:33:52 29.354- 29.394
MOZHAYETS 4 24 Sep 15:12:18 15:14:39 14° 90° (E) 15:17:00
UKube-1 24 Sep 15:12:47 15:17:04 69° 285° (WNW) 15:21:20 .
DX 1 24 Sep 15:21:53 15:25:50 35° 290° (WNW) 15:29:46 434.975-435.025
NO-84 24 Sep 15:22:24 15:24:00 12° 338° (NNW) 15:25:33 435.350 FM
50 SAT 24 Sep 15:28:39 15:30:25 14° 293° (WNW) 15:32:11 437.505
PCSat 24 Sep 15:35:38 15:40:54 52° 303° (WNW) 15:46:12 145.827
AO-7 24 Sep 15:41:48 15:50:10 86° 252° (WSW) 15:58:32 .
ITUPSAT 1 24 Sep 15:48:39 15:52:59 32° 97° (E) 15:57:16 437.325
ITAMSAT 1 24 Sep 16:12:15 16:17:20 58° 259° (WSW) 16:22:27 435.822/435.867
BEESAT 24 Sep 16:24:21 16:29:10 77° 103° (ESE) 16:33:57 436.000
MOZHAYETS 4 24 Sep 16:47:35 16:52:09 58° 286° (WNW) 16:56:40
KKS-1 24 Sep 17:02:14 17:04:24 13° 91° (E) 17:06:32 437.445
LilacSat-2 24 Sep 17:13:07 17:15:03 13° 65° (ENE) 17:16:58 437.200
CUBESAT XI-V 24 Sep 17:16:24 17:20:59 60° 100° (E) 17:25:31 437.345
PCSat 24 Sep 17:24:49 17:25:36 10° 325° (NW) 17:26:23 145.827
RS-15 24 Sep 17:26:04 17:32:52 18° 263° (W) 17:39:30 29.354- 29.394
ITUPSAT 1 24 Sep 17:26:38 17:30:40 27° 293° (WNW) 17:34:40 437.325
KAITUO 1B 24 Sep 17:27:36 17:29:28 13° 66° (ENE) 17:31:20 145.475/437.950
DOVE 4 24 Sep 17:38:09 17:42:36 83° 259° (W) 17:46:50 437.250
AO-7 24 Sep 17:39:06 17:43:58 16° 270° (W) 17:48:51 .
HO-68 24 Sep 17:55:18 18:00:37 23° 58° (ENE) 18:05:55 435.675
XW-2D 24 Sep 17:57:50 18:01:28 42° 73° (ENE) 18:05:08 145.860 - 145.880
BEESAT 24 Sep 18:04:18 18:06:17 12° 300° (WNW) 18:08:15 436.000
CUTE-I 24 Sep 18:07:25 18:12:32 51° 71° (ENE) 18:17:41 437.470
XW-2F 24 Sep 18:09:15 18:12:58 53° 75° (ENE) 18:16:44 145.980 - 146.000
XW-2B 24 Sep 18:10:05 18:13:51 58° 75° (ENE) 18:17:38 145.730 - 145.750
Tancredo 1 24 Sep 18:17:42 18:18:47 12° 131° (SE) 18:19:52 437.200
NUDT-PHONESAT 24 Sep 18:29:01 18:32:45 72° 77° (ENE) 18:36:32 437.300
XW-2C 24 Sep 18:31:26 18:35:15 73° 258° (WSW) 18:39:08 145.795 - 145.815
CUBEBUG 2 24 Sep 18:35:52 18:37:58 13° 63° (ENE) 18:40:06 437.445
KKS-1 24 Sep 18:36:55 18:41:16 55° 287° (WNW) 18:45:37 437.445
NO-84 24 Sep 18:39:54 18:41:27 13° 22° (NNE) 18:42:58 435.350 FM
LilacSat-2 24 Sep 18:45:11 18:48:54 45° 261° (W) 18:52:39 437.200
CUBESAT XI-V 24 Sep 18:55:20 18:57:50 15° 297° (WNW) 19:00:19 437.345
STARS 24 Sep 18:58:07 19:02:33 81° 284° (WNW) 19:06:57 437.465
KAITUO 1B 24 Sep 18:59:26 19:03:03 43° 261° (W) 19:06:42 145.475/437.950
SEEDS 24 Sep 18:59:41 19:03:12 26° 69° (ENE) 19:06:45 437.485
STRAND 1 24 Sep 19:13:20 19:15:20 12° 89° (E) 19:17:20 437.568
BEESAT 3 24 Sep 19:15:51 19:19:25 32° 115° (ESE) 19:23:02 437.485
AAUSAT CUBESAT 2 24 Sep 19:19:40 19:22:40 19° 67° (ENE) 19:25:38 437.432
AO-73 24 Sep 19:22:30 19:24:17 12° 62° (ENE) 19:26:05 145.935
ZACube-1 24 Sep 19:25:16 19:27:43 15° 64° (ENE) 19:30:13 437.345
BEESAT 2 24 Sep 19:27:45 19:29:35 13° 109° (ESE) 19:31:24 435.950
CUTE 1.7 + AOD 2 24 Sep 19:28:58 19:33:15 88° 266° (W) 19:37:34 437.475
XW-2D 24 Sep 19:34:01 19:35:51 13° 269° (W) 19:37:41 145.860 - 145.880
HO-68 24 Sep 19:40:31 19:47:38 72° 256° (WSW) 19:54:49 435.675
XW-2F 24 Sep 19:46:56 19:47:24 10° 270° (W) 19:47:52 145.980 - 146.000
nSIGHT-1 24 Sep 19:47:10 19:49:31 19° 132° (SE) 19:51:52 .
CUTE-I 24 Sep 19:49:05 19:52:51 20° 267° (W) 19:56:39 437.470
Tancredo 1 24 Sep 19:50:19 19:52:56 50° 327° (NNW) 19:55:34 437.200
XW-2A 24 Sep 19:59:34 20:02:58 87° 256° (WSW) 20:06:25 145.665 - 145.685
CUBEBUG 2 24 Sep 20:09:52 20:14:02 57° 260° (W) 20:18:22 437.445
UWE-3 24 Sep 20:14:10 20:18:28 90° 236° (WSW) 20:22:55 435.000/436.395/437.385
NO-84 24 Sep 20:16:16 20:19:17 87° 33° (NNE) 20:22:09 435.350 FM
AO-85 24 Sep 20:20:16 20:24:01 49° 118° (ESE) 20:27:50 145.980
SEEDS 24 Sep 20:35:16 20:38:48 26° 265° (W) 20:42:22 437.485
DELFI C3 24 Sep 20:39:20 20:40:44 12° 64° (ENE) 20:42:09 145.870
ISS 24 Sep 20:45:09 20:48:23 69° 142° (SE) 20:51:40 437.550
STRAND 1 24 Sep 20:49:54 20:55:03 77° 286° (WNW) 21:00:12 437.568
Oscar 11 24 Sep 20:53:16 20:57:37 83° 75° (ENE) 21:02:00 .
BEESAT 3 24 Sep 20:53:41 20:57:00 24° 312° (NW) 21:00:21 437.485
AAUSAT CUBESAT 2 24 Sep 20:54:03 20:57:51 34° 263° (W) 21:01:40 437.432
AO-73 24 Sep 20:55:36 20:59:54 66° 260° (W) 21:04:20 145.935
ZACube-1 24 Sep 20:59:17 21:03:30 53° 261° (W) 21:07:52 437.345
BEESAT 2 24 Sep 21:02:53 21:06:48 55° 305° (NW) 21:10:49 435.950
nSIGHT-1 24 Sep 21:22:28 21:25:36 46° 328° (NNW) 21:28:45 .
Max Valier Satellite 24 Sep 21:25:58 21:29:09 28° 71° (ENE) 21:32:22 145.860
Tancredo 1 24 Sep 21:26:48 21:27:54 12° 345° (NNW) 21:29:01 437.200
HO-68 24 Sep 21:34:55 21:36:30 11° 274° (W) 21:38:05 435.675
SO-50 24 Sep 21:45:58 21:49:16 19° 43° (NE) 21:52:34 436.795
AO-85 24 Sep 22:02:10 22:04:41 16° 317° (NW) 22:07:15 145.980
FO-29 24 Sep 22:06:26 22:11:59 66° 103° (ESE) 22:18:09 435.910
DELFI C3 24 Sep 22:11:08 22:15:01 55° 260° (W) 22:18:53 145.870
ISS 24 Sep 22:22:32 22:25:09 21° 339° (NNW) 22:27:45 437.550
EO-88 24 Sep 22:23:21 22:27:00 70° 259° (WSW) 22:30:41 145.990 - 145.960
UNISAT 6 24 Sep 22:34:56 22:39:25 44° 98° (E) 22:43:55 437.425
YUBILEINY 24 Sep 22:37:25 22:44:47 29° 69° (ENE) 22:52:08 435.215
PCSat 24 Sep 22:41:08 22:45:05 20° 45° (NE) 22:49:01 145.827
TIGRISAT 24 Sep 22:58:08 23:02:50 72° 102° (ESE) 23:07:31 435.000
Max Valier Satellite 24 Sep 23:00:22 23:02:59 18° 266° (W) 23:05:37 145.860
nSIGHT-1 24 Sep 23:00:38 23:02:33 15° 348° (NNW) 23:04:28 .
PRISM 24 Sep 23:09:50 23:13:47 50° 101° (E) 23:17:44 437.425
ESTCUBE 1 24 Sep 23:12:45 23:16:58 39° 71° (ENE) 23:21:11 437.505/2401.250
LO-87 24 Sep 23:15:39 23:19:06 59° 75° (ENE) 23:22:36 145.935 - 145.965
SO-50 24 Sep 23:25:33 23:30:05 60° 241° (WSW) 23:34:39 436.795
SPROUT 24 Sep 23:27:34 23:29:42 14° 64° (ENE) 23:31:49 437.525
VELOX 1 24 Sep 23:38:11 23:40:28 14° 63° (ENE) 23:42:44 145.980
FO-29 24 Sep 23:53:04 23:56:40 18° 297° (WNW) 00:00:29 435.910
ISS 25 Sep 00:01:06 00:02:34 12° 359° (N) 00:04:02 437.550
NANOSAT C BR1 25 Sep 00:01:48 00:04:12 15° 92° (E) 00:06:36 145.865
UNISAT 6 25 Sep 00:12:27 00:15:48 20° 294° (WNW) 00:19:08 437.425
PCSat 25 Sep 00:23:37 00:29:01 70° 244° (WSW) 00:34:23 145.827
50 SAT 25 Sep 00:27:07 00:27:33 10° 65° (ENE) 00:27:58 437.505
DUCHIFAT 1 25 Sep 00:28:32 00:32:06 25° 96° (E) 00:35:39 145.980
AIST 2D 25 Sep 00:29:13 00:32:45 76° 285° (WNW) 00:36:14 435.315
YUBILEINY 25 Sep 00:33:34 00:42:06 61° 269° (W) 00:50:39 435.215
Tancredo 1 25 Sep 00:36:27 00:38:36 21° 25° (NNE) 00:40:44 437.200
TIGRISAT 25 Sep 00:36:50 00:38:54 13° 298° (WNW) 00:40:58 435.000
nSIGHT-1 25 Sep 00:38:17 00:39:56 13° 8° (N) 00:41:34 .
DX 1 25 Sep 00:41:58 00:44:53 18° 65° (ENE) 00:47:47 434.975-435.025
POLYITAN 1 25 Sep 00:43:54 00:48:06 49° 100° (E) 00:52:16 437.675
PRISM 25 Sep 00:46:39 00:48:37 13° 296° (WNW) 00:50:35 437.425
EO-79 25 Sep 00:47:46 00:52:00 55° 100° (E) 00:56:11 145.935-145.965
ESTCUBE 1 25 Sep 00:50:37 00:53:53 19° 267° (W) 00:57:10 437.505/2401.250
BUGSAT 1 25 Sep 00:59:21 01:01:44 15° 92° (E) 01:04:07 437.445
SPROUT 25 Sep 01:00:58 01:05:06 54° 260° (W) 01:09:18 437.525
QB50P2 25 Sep 01:01:51 01:06:10 89° 110° (ESE) 01:10:27 145.880/145.840
VELOX 1 25 Sep 01:12:06 01:16:25 57° 259° (W) 01:20:45 145.980
O/OREOS (USA 219) 25 Sep 01:30:25 01:33:14 17° 100° (E) 01:36:06 437.305
NANOSAT C BR1 25 Sep 01:36:02 01:40:08 46° 287° (WNW) 01:44:13 145.865
Gurwin Techsat 1B 25 Sep 01:36:12 01:38:33 13° 90° (E) 01:40:51 435.225
ISS 25 Sep 01:37:31 01:40:01 20° 20° (NNE) 01:42:31 437.550
Oscar 19 25 Sep 01:38:57 01:42:46 21° 93° (E) 01:46:33 437.125/150
50 SAT 25 Sep 01:56:29 01:59:38 41° 261° (W) 02:02:47 437.505
DUCHIFAT 1 25 Sep 02:04:06 02:07:41 27° 291° (WNW) 02:11:15 145.980
UKube-1 25 Sep 02:06:24 02:10:42 86° 256° (WSW) 02:15:02 .
Tancredo 1 25 Sep 02:10:37 02:13:09 38° 222° (SW) 02:15:41 437.200
M-CUBED/EXP-1 PRIME 25 Sep 02:13:38 02:16:56 70° 288° (WNW) 02:20:09 437.505
nSIGHT-1 25 Sep 02:14:01 02:17:01 32° 28° (NNE) 02:20:00 .
MOZHAYETS 4 25 Sep 02:14:17 02:16:37 14° 62° (ENE) 02:18:59
DX 1 25 Sep 02:16:37 02:20:43 41° 261° (W) 02:24:51 434.975-435.025
POLYITAN 1 25 Sep 02:20:58 02:23:27 15° 296° (WNW) 02:25:56 437.675
EO-79 25 Sep 02:25:06 02:27:16 14° 296° (WNW) 02:29:26 145.935-145.965
BUGSAT 1 25 Sep 02:33:15 02:37:18 46° 287° (WNW) 02:41:21 437.445
ITUPSAT 1 25 Sep 02:54:57 02:59:18 37° 69° (ENE) 03:03:42 437.325
O/OREOS (USA 219) 25 Sep 03:07:55 03:12:14 45° 296° (WNW) 03:16:37 437.305
ISS 25 Sep 03:13:32 03:16:51 83° 215° (SW) 03:20:08 437.550
Gurwin Techsat 1B 25 Sep 03:13:42 03:19:02 76° 286° (WNW) 03:24:20 435.225
Oscar 19 25 Sep 03:17:21 03:22:18 47° 289° (WNW) 03:27:11 437.125/150
RS-15 25 Sep 03:26:18 03:33:02 17° 96° (E) 03:39:45 29.354- 29.394
BEESAT 25 Sep 03:30:08 03:34:54 85° 75° (ENE) 03:39:42 436.000
BEESAT 3 25 Sep 03:32:55 03:35:53 20° 46° (NE) 03:38:48 437.485
AO-7 25 Sep 03:44:20 03:51:34 32° 97° (E) 03:58:44 .
BEESAT 2 25 Sep 03:45:27 03:46:10 10° 38° (NE) 03:46:53 435.950
MOZHAYETS 4 25 Sep 03:48:39 03:53:13 64° 259° (W) 03:57:50
nSIGHT-1 25 Sep 03:50:24 03:53:18 30° 224° (SW) 03:56:12 .
